�������l�o���
Date,Time,MP-1(��Sv/h),MP-2(��Sv/h),MP-3(��Sv/h),MP-4(��Sv/h),MP-5(��Sv/h),MP-6(��Sv/h),MP-7(��Sv/h),MP-8(��Sv/h),����,����(m/s),���J
2017/08/29,00:00,0.954,1.512,0.980,1.800,1.241,0.519,0.950,0.875,��쓌,5.9,��
2017/08/29,00:10,0.953,1.508,0.977,1.795,1.242,0.521,0.950,0.878,��,6.2,��
2017/08/29,00:20,0.952,1.509,0.979,1.799,1.241,0.521,0.951,0.877,��,5.7,��
2017/08/29,00:30,0.954,1.508,0.979,1.800,1.243,0.521,0.949,0.876,��,5.2,��
2017/08/29,00:40,0.954,1.511,0.980,1.799,1.244,0.521,0.950,0.878,��,5.0,��
2017/08/29,00:50,0.954,1.508,0.979,1.801,1.243,0.522,0.950,0.879,��,3.5,��
2017/08/29,01:00,0.952,1.509,0.978,1.797,1.244,0.521,0.951,0.877,��쐼,2.6,��
2017/08/29,01:10,0.954,1.511,0.980,1.801,1.241,0.521,0.950,0.875,��,3.6,��
2017/08/29,01:20,0.953,1.509,0.980,1.799,1.243,0.523,0.951,0.877,��,4.5,��
2017/08/29,01:30,0.954,1.510,0.979,1.798,1.245,0.521,0.949,0.875,��,4.5,��
2017/08/29,01:40,0.953,1.507,0.980,1.801,1.241,0.521,0.950,0.876,��,4.3,��
2017/08/29,01:50,0.954,1.506,0.978,1.801,1.243,0.522,0.951,0.877,��,4.9,��
2017/08/29,02:00,0.955,1.511,0.982,1.798,1.242,0.521,0.951,0.877,��,4.9,��
2017/08/29,02:10,0.953,1.510,0.981,1.801,1.243,0.520,0.950,0.876,��,4.4,��
2017/08/29,02:20,0.952,1.508,0.980,1.797,1.241,0.521,0.948,0.877,��,4.4,��
2017/08/29,02:30,0.951,1.507,0.979,1.798,1.241,0.520,0.951,0.876,��,5.2,��
2017/08/29,02:40,0.953,1.508,0.981,1.799,1.243,0.521,0.949,0.876,��,6.0,��
2017/08/29,02:50,0.952,1.507,0.980,1.797,1.245,0.520,0.951,0.879,��,5.2,��
2017/08/29,03:00,0.954,1.508,0.982,1.798,1.242,0.519,0.950,0.877,��쐼,4.4,��
2017/08/29,03:10,0.954,1.507,0.979,1.799,1.242,0.520,0.950,0.875,��쐼,3.9,��
2017/08/29,03:20,0.953,1.507,0.979,1.798,1.241,0.521,0.950,0.876,��,3.3,��
2017/08/29,03:30,0.952,1.507,0.978,1.800,1.240,0.521,0.951,0.877,��쓌,3.8,��
2017/08/29,03:40,0.952,1.507,0.980,1.798,1.241,0.521,0.951,0.875,��,4.4,��
2017/08/29,03:50,0.954,1.506,0.981,1.798,1.242,0.521,0.949,0.877,��쓌,5.1,��
2017/08/29,04:00,0.954,1.504,0.980,1.798,1.239,0.521,0.950,0.877,��,5.0,��
2017/08/29,04:10,0.955,1.508,0.978,1.797,1.238,0.521,0.951,0.876,��,5.8,��
2017/08/29,04:20,0.952,1.506,0.980,1.799,1.242,0.520,0.950,0.878,��,5.7,��
2017/08/29,04:30,0.954,1.504,0.979,1.797,1.242,0.520,0.950,0.876,��,5.0,��
2017/08/29,04:40,0.952,1.504,0.980,1.798,1.241,0.519,0.949,0.875,��,4.9,��
2017/08/29,04:50,0.954,1.507,0.979,1.798,1.240,0.520,0.950,0.877,��,6.2,��
2017/08/29,05:00,0.954,1.507,0.980,1.799,1.242,0.520,0.949,0.878,��,6.4,��
2017/08/29,05:10,0.953,1.504,0.977,1.799,1.242,0.520,0.950,0.876,��,6.0,��
2017/08/29,05:20,0.952,1.508,0.980,1.798,1.240,0.521,0.952,0.876,��,5.9,��
2017/08/29,05:30,0.952,1.505,0.977,1.800,1.240,0.520,0.950,0.877,��,6.6,��
2017/08/29,05:40,0.954,1.507,0.978,1.798,1.241,0.521,0.951,0.876,��,6.2,��
2017/08/29,05:50,0.952,1.508,0.981,1.796,1.240,0.521,0.951,0.876,��,6.3,��
2017/08/29,06:00,0.952,1.509,0.980,1.796,1.239,0.521,0.950,0.877,��,5.7,��
2017/08/29,06:10,0.952,1.506,0.981,1.800,1.242,0.520,0.948,0.876,��,5.1,��
2017/08/29,06:20,0.952,1.508,0.979,1.799,1.243,0.520,0.951,0.877,��,5.4,��
2017/08/29,06:30,0.953,1.506,0.980,1.799,1.240,0.522,0.951,0.877,��,5.6,��
2017/08/29,06:40,0.954,1.509,0.977,1.800,1.242,0.519,0.951,0.875,��,5.4,��
2017/08/29,06:50,0.956,1.507,0.971,1.798,1.241,0.520,0.952,0.877,��,5.0,��
2017/08/29,07:00,0.954,1.508,0.977,1.799,1.239,0.520,0.950,0.877,��,5.5,��
2017/08/29,07:10,0.956,1.510,0.983,1.799,1.240,0.521,0.951,0.877,��,6.5,��
2017/08/29,07:20,0.955,1.509,0.985,1.801,1.242,0.522,0.952,0.878,��,6.6,��
2017/08/29,07:30,0.953,1.509,0.983,1.798,1.241,0.520,0.949,0.876,��,6.2,��
2017/08/29,07:40,0.956,1.508,0.983,1.799,1.238,0.521,0.951,0.876,��,6.7,��
2017/08/29,07:50,0.955,1.506,0.985,1.799,1.241,0.520,0.950,0.877,��,6.4,��
2017/08/29,08:00,0.955,1.507,0.988,1.801,1.241,0.519,0.950,0.877,��,6.3,��
2017/08/29,08:10,0.956,1.509,0.983,1.802,1.240,0.520,0.952,0.877,��쐼,5.2,��
2017/08/29,08:20,0.957,1.505,0.984,1.802,1.243,0.521,0.949,0.878,��쐼,4.3,��
2017/08/29,08:30,0.958,1.508,0.984,1.801,1.243,0.522,0.951,0.876,��쐼,5.2,��
2017/08/29,08:40,0.959,1.507,0.987,1.802,1.244,0.522,0.951,0.875,��쐼,5.7,��
2017/08/29,08:50,0.958,1.509,0.986,1.804,1.244,0.522,0.950,0.874,��,4.5,��
2017/08/29,09:00,0.959,1.512,0.986,1.803,1.243,0.523,0.953,0.875,��,4.6,��
2017/08/29,09:10,0.960,1.511,0.987,1.804,1.244,0.523,0.952,0.876,�쐼,4.0,��
2017/08/29,09:20,0.960,1.511,0.986,1.804,1.245,0.524,0.951,0.876,��쐼,3.6,��
2017/08/29,09:30,0.960,1.505,0.986,1.803,1.242,0.523,0.951,0.873,��쐼,3.2,��
2017/08/29,09:40,0.960,1.509,0.988,1.803,1.245,0.523,0.953,0.875,�쐼,3.8,��
2017/08/29,09:50,0.962,1.510,0.987,1.802,1.245,0.523,0.952,0.876,��쐼,3.1,��
2017/08/29,10:00,0.962,1.510,0.991,1.803,1.246,0.524,0.952,0.876,��쐼,3.0,��
2017/08/29,10:10,0.961,1.510,0.987,1.806,1.247,0.516,0.953,0.876,��쓌,2.9,��
2017/08/29,10:20,0.956,1.510,0.988,1.807,1.246,0.513,0.953,0.875,��쓌,4.1,��
2017/08/29,10:30,0.960,1.510,0.989,1.803,1.249,0.518,0.953,0.875,��쓌,4.4,��
2017/08/29,10:40,0.961,1.510,0.989,1.811,1.247,0.517,0.952,0.873,��쓌,4.1,��
2017/08/29,10:50,0.961,1.513,0.990,1.809,1.249,0.513,0.954,0.876,��쓌,4.7,��
2017/08/29,11:00,0.962,1.510,0.988,1.808,1.250,0.515,0.955,0.876,��쓌,5.7,��
2017/08/29,11:10,0.963,1.511,0.990,1.806,1.251,0.514,0.955,0.877,��,7.7,��
2017/08/29,11:20,0.960,1.514,0.990,1.807,1.252,0.514,0.955,0.877,��,8.8,��
2017/08/29,11:30,0.963,1.512,0.992,1.809,1.251,0.522,0.954,0.877,��,9.0,��
2017/08/29,11:40,0.962,1.517,0.989,1.804,1.252,0.523,0.956,0.879,��,9.0,��
2017/08/29,11:50,0.964,1.516,0.991,1.803,1.253,0.522,0.954,0.876,��,7.2,��
2017/08/29,12:00,0.963,1.519,0.993,1.804,1.255,0.524,0.957,0.878,��,8.2,��
2017/08/29,12:10,0.964,1.517,0.991,1.806,1.257,0.524,0.955,0.876,��,8.1,��
2017/08/29,12:20,0.965,1.518,0.990,1.806,1.256,0.523,0.956,0.877,��,6.8,��
2017/08/29,12:30,0.967,1.519,0.994,1.807,1.257,0.523,0.954,0.878,��,8.1,��
2017/08/29,12:40,0.966,1.522,0.993,1.809,1.257,0.523,0.956,0.877,��쓌,9.2,��
2017/08/29,12:50,0.965,1.522,0.992,1.807,1.258,0.524,0.955,0.878,��,8.9,��
2017/08/29,13:00,0.968,1.523,0.991,1.808,1.257,0.524,0.954,0.877,��,7.7,��
2017/08/29,13:10,0.969,1.522,0.991,1.808,1.258,0.522,0.955,0.876,��,6.4,��
2017/08/29,13:20,0.969,1.520,0.991,1.810,1.259,0.522,0.955,0.878,��,5.6,��
2017/08/29,13:30,0.969,1.521,0.989,1.810,1.259,0.525,0.954,0.878,��,6.3,��
2017/08/29,13:40,0.967,1.521,0.993,1.810,1.261,0.526,0.958,0.878,��,5.7,��
2017/08/29,13:50,0.968,1.521,0.991,1.813,1.259,0.524,0.958,0.879,��,5.9,��
2017/08/29,14:00,0.968,1.525,0.991,1.814,1.262,0.523,0.956,0.878,��쓌,5.3,��
2017/08/29,14:10,0.969,1.525,0.994,1.815,1.261,0.522,0.960,0.879,��,7.0,��
2017/08/29,14:20,0.968,1.522,0.993,1.819,1.264,0.526,0.958,0.880,��,8.7,��
2017/08/29,14:30,0.967,1.525,0.990,1.812,1.262,0.526,0.958,0.878,��,7.9,��
2017/08/29,14:40,0.967,1.526,0.993,1.812,1.264,0.525,0.959,0.879,��,7.2,��
2017/08/29,14:50,0.967,1.525,0.989,1.812,1.263,0.524,0.958,0.880,��,7.0,��
2017/08/29,15:00,0.968,1.525,0.993,1.811,1.263,0.526,0.956,0.878,��,7.1,��
2017/08/29,15:10,0.968,1.524,0.993,1.811,1.266,0.524,0.958,0.878,��,7.0,��
2017/08/29,15:20,0.971,1.523,0.993,1.809,1.262,0.524,0.958,0.881,��,6.7,��
2017/08/29,15:30,0.970,1.527,0.994,1.811,1.263,0.524,0.959,0.879,��,5.9,��
2017/08/29,15:40,0.968,1.524,0.990,1.814,1.263,0.522,0.957,0.879,��,5.4,��
2017/08/29,15:50,0.967,1.526,0.994,1.814,1.265,0.523,0.956,0.879,��,6.0,��
2017/08/29,16:00,0.970,1.528,0.994,1.813,1.261,0.521,0.956,0.880,��,5.8,��
2017/08/29,16:10,0.968,1.527,0.995,1.815,1.263,0.524,0.957,0.881,��,6.7,��
2017/08/29,16:20,0.968,1.526,0.994,1.814,1.262,0.522,0.958,0.878,��,6.0,��
2017/08/29,16:30,0.969,1.526,0.994,1.814,1.265,0.523,0.956,0.879,��,6.0,��
2017/08/29,16:40,0.970,1.525,0.994,1.815,1.263,0.522,0.954,0.879,��,6.2,��
2017/08/29,16:50,0.970,1.526,0.993,1.813,1.262,0.523,0.956,0.879,��,6.0,��
2017/08/29,17:00,0.969,1.526,0.994,1.815,1.261,0.523,0.955,0.878,��,6.6,��
2017/08/29,17:10,0.968,1.525,0.994,1.813,1.262,0.523,0.958,0.878,��,5.8,��
2017/08/29,17:20,0.969,1.525,0.995,1.814,1.261,0.522,0.956,0.879,��,7.0,��
2017/08/29,17:30,0.969,1.525,0.993,1.813,1.260,0.522,0.955,0.880,��,7.7,��
2017/08/29,17:40,0.971,1.527,0.992,1.815,1.261,0.522,0.957,0.879,��,6.6,��
2017/08/29,17:50,0.970,1.527,0.992,1.813,1.260,0.522,0.955,0.880,��,6.7,��
2017/08/29,18:00,0.971,1.525,0.994,1.812,1.260,0.523,0.956,0.880,��,5.3,��
2017/08/29,18:10,0.969,1.524,0.994,1.812,1.262,0.523,0.954,0.880,��,5.9,��
2017/08/29,18:20,0.970,1.526,0.995,1.814,1.261,0.523,0.955,0.878,��쐼,5.2,��
2017/08/29,18:30,0.969,1.526,0.993,1.813,1.260,0.521,0.955,0.878,��쐼,4.8,��
2017/08/29,18:40,0.969,1.526,0.995,1.810,1.260,0.523,0.956,0.880,��쐼,4.2,��
2017/08/29,18:50,0.971,1.524,0.994,1.812,1.260,0.524,0.956,0.878,��쐼,4.4,��
2017/08/29,19:00,0.971,1.524,0.995,1.813,1.260,0.523,0.956,0.878,��쐼,3.9,��
2017/08/29,19:10,0.971,1.525,0.993,1.812,1.260,0.522,0.956,0.880,��,4.3,��
2017/08/29,19:20,0.968,1.525,0.994,1.814,1.262,0.524,0.955,0.879,��,4.5,��
2017/08/29,19:30,0.968,1.528,0.994,1.812,1.262,0.522,0.956,0.880,��,5.8,��
2017/08/29,19:40,0.969,1.524,0.993,1.813,1.262,0.524,0.956,0.878,��쐼,5.5,��
2017/08/29,19:50,0.971,1.527,0.993,1.812,1.263,0.522,0.955,0.879,��쐼,5.6,��
2017/08/29,20:00,0.969,1.526,0.993,1.815,1.261,0.525,0.953,0.879,��쐼,5.2,��
2017/08/29,20:10,0.971,1.526,0.996,1.812,1.262,0.524,0.955,0.879,��쐼,4.5,��
2017/08/29,20:20,0.969,1.528,0.996,1.811,1.262,0.524,0.955,0.879,��쐼,5.2,��
2017/08/29,20:30,0.968,1.527,0.994,1.811,1.260,0.525,0.955,0.878,��쐼,5.2,��
2017/08/29,20:40,0.970,1.524,0.993,1.813,1.262,0.525,0.954,0.878,��,5.9,��
2017/08/29,20:50,0.973,1.528,0.995,1.812,1.261,0.523,0.954,0.879,��쐼,6.0,��
2017/08/29,21:00,0.970,1.521,0.993,1.816,1.263,0.525,0.952,0.879,��,5.2,��
2017/08/29,21:10,0.968,1.525,0.993,1.813,1.258,0.525,0.955,0.879,��쐼,4.4,��
2017/08/29,21:20,0.967,1.526,0.994,1.814,1.259,0.524,0.954,0.879,��쐼,4.5,��
2017/08/29,21:30,0.968,1.526,0.995,1.815,1.261,0.524,0.953,0.879,��,5.8,��
2017/08/29,21:40,0.969,1.525,0.993,1.813,1.262,0.523,0.954,0.880,��쐼,5.4,��
2017/08/29,21:50,0.969,1.525,0.996,1.814,1.260,0.527,0.955,0.879,��쐼,5.0,��
2017/08/29,22:00,0.967,1.526,0.994,1.812,1.259,0.524,0.956,0.878,��쐼,5.0,��
2017/08/29,22:10,0.969,1.525,0.995,1.813,1.259,0.524,0.954,0.879,��쐼,4.1,��
2017/08/29,22:20,0.968,1.527,0.995,1.812,1.261,0.524,0.956,0.878,�쐼,4.0,��
2017/08/29,22:30,0.967,1.525,0.996,1.816,1.260,0.525,0.955,0.879,�쐼,4.5,��
2017/08/29,22:40,0.970,1.524,0.993,1.816,1.263,0.526,0.958,0.881,�쐼,4.3,��
2017/08/29,22:50,0.970,1.526,0.995,1.811,1.260,0.524,0.954,0.879,�쐼,3.6,��
2017/08/29,23:00,0.970,1.526,0.995,1.815,1.260,0.525,0.956,0.880,��쐼,2.9,��
2017/08/29,23:10,0.969,1.525,0.995,1.813,1.262,0.523,0.955,0.880,�쐼,1.7,��
2017/08/29,23:20,0.970,1.527,0.995,1.812,1.262,0.525,0.955,0.881,���쐼,1.7,��
2017/08/29,23:30,0.971,1.528,0.994,1.812,1.263,0.524,0.957,0.880,��,2.3,��
2017/08/29,23:40,0.969,1.526,0.997,1.813,1.261,0.525,0.956,0.880,��,1.2,��
2017/08/29,23:50,0.971,1.527,0.994,1.818,1.262,0.525,0.955,0.882,���k��,0.9,��
